This demonstration page uses our WeatherBlox Daily Observations layout. Learn more.

Left ArrowRight Arrow

38.20091, -84.87328

Hourly Observations for July 2, 2018

Temp ( °F °C ) Dew Point ( °F °C ) Humidity (%) Winds ( mph kmh ) Pressure ( in mb ) Visibility ( mi km ) Precip ( " mm )
12:53 am 00:53 Clear 75 23.9 70 21.1 84 84 S 5 7 30.01 1016 10 16 0.00 0.00
1:53 am 01:53 Clear 76 24.4 71 21.7 85 85 S 7 11 29.99 1016 10 16 0.00 0.00
2:53 am 02:53 Clear 75 23.9 70 21.1 84 84 S 3 6 29.98 1015 10 16 0.00 0.00
3:53 am 03:53 Clear 74 23.3 70 21.1 88 88 S 3 6 29.97 1015 10 16 0.00 0.00
4:53 am 04:53 Clear 74 23.3 70 21.1 88 88 SSW 5 7 29.97 1015 10 16 0.00 0.00
5:53 am 05:53 Clear 74 23.3 70 21.1 88 88 S 6 9 29.99 1016 10 16 0.00 0.00
6:53 am 06:53 Sunny 74 23.3 70 21.1 88 88 S 6 9 30.00 1016 10 16 0.00 0.00
7:53 am 07:53 Sunny 76 24.4 70 21.1 82 82 S 7 11 30.01 1016 10 16 0.00 0.00
8:53 am 08:53 Mostly Sunny 79 26.1 71 21.7 77 77 SSW 9 15 30.03 1017 10 16 0.00 0.00
9:14 am 09:14 Sunny with Nearby Thunderstorms 80 26.7 72 22.2 76 76 SW 6 9 30.03 1017 10 16 0.00 0.00
9:29 am 09:29 Sunny 81 27.2 72 22.2 74 74 VRB 5 7 30.03 1017 10 16 0.00 0.00
9:53 am 09:53 Sunny 83 28.3 73 22.8 72 72 VRB 6 9 30.03 1017 10 16 0.00 0.00
10:53 am 10:53 Sunny 84 28.9 73 22.8 70 70 SSW 3 6 30.03 1017 10 16 0.00 0.00
11:53 am 11:53 Mostly Cloudy 87 30.6 75 23.9 67 67 Calm 30.03 1017 10 16 0.00 0.00
12:53 pm 12:53 Mostly Cloudy with Light Rain 87 30.6 75 23.9 67 67 Calm 30.02 1017 9 14 0.00 0.03
1:53 pm 13:53 Mostly Sunny 91 32.8 73 22.8 56 56 VRB 3 6 30.01 1016 10 16 0.00 0.03
2:53 pm 14:53 Mostly Cloudy 88 31.1 73 22.8 61 61 W 3 6 29.99 1016 10 16 0.00 0.00
3:29 pm 15:29 Partly Cloudy with Nearby Thunderstorms 90 32.2 74 23.3 59 59 VRB 6 9 29.97 1015 10 16 0.01 0.25
3:44 pm 15:44 Partly Cloudy with Thunderstorms 87 30.6 73 22.8 63 63 ESE 20 31 30.00 1016 10 16 0.01 0.25
3:53 pm 15:53 Mostly Cloudy with Thunderstorms 82 27.8 69 20.6 65 65 S 23 37 30.01 1016 10 16 0.01 0.25
4:02 pm 16:02 Windy with Storms Likely 77 25 68 20 74 74 S 22 35 30.00 1016 8 13 0.01 0.25
4:07 pm 16:07 Mostly Cloudy with Strong Thunderstorms 74 23.3 68 20 82 82 S 33 54 30.00 1016 2 3 0.09 2.29
4:10 pm 16:10 Cloudy with Strong Thunderstorms 74 23.3 68 20 82 82 S 26 43 30.00 1016 1 1 0.20 5.08
4:21 pm 16:21 Cloudy with Strong Thunderstorms 73 22.8 68 20 84 84 S 12 19 30.03 1017 1 2 0.31 7.87
4:29 pm 16:29 Cloudy with Strong Thunderstorms 74 23.3 69 20.6 85 85 NNE 8 13 30.06 1018 3 5 0.35 8.89
4:53 pm 16:53 Mostly Cloudy with Thunderstorms 76 24.4 69 20.6 79 79 Calm 30.03 1017 10 16 0.36 9.14
5:20 pm 17:20 Sunny with Nearby Thunderstorms 75 23.9 69 20.6 82 82 NNE 3 6 30.00 1016 10 16 0.00 0.03
5:31 pm 17:31 Partly Cloudy with Thunderstorms 75 23.9 68 20 79 79 ENE 9 15 30.03 1017 10 16 0.00 0.03
5:46 pm 17:46 Partly Cloudy with Light Rain 74 23.3 69 20.6 85 85 ENE 3 6 30.03 1017 10 16 0.01 0.25
5:53 pm 17:53 Mostly Cloudy with Light Rain 74 23.3 69 20.6 85 85 VRB 3 6 30.03 1017 10 16 0.01 0.25
6:53 pm 18:53 Cloudy with Light Rain 75 23.9 70 21.1 84 84 SE 7 11 30.01 1016 10 16 0.04 1.02
7:53 pm 19:53 Mostly Sunny 76 24.4 71 21.7 85 85 Calm 30.03 1017 10 16 0.00 0.03
8:53 pm 20:53 Sunny 75 23.9 72 22.2 90 90 N 3 6 30.03 1017 10 16 0.00 0.00
9:53 pm 21:53 Clear 74 23.3 71 21.7 91 91 Calm 30.04 1017 10 16 0.00 0.00
10:53 pm 22:53 Clear 74 23.3 71 21.7 91 91 NW 5 7 30.06 1018 9 14 0.00 0.00
11:53 pm 23:53 Clear 73 22.8 70 21.1 90 90 Calm 30.08 1019 10 16 0.00 0.00

Powered by AerisWeather